Location: Blankensee
(53.5126°N, 14.3055°E)
Time: 18:23:10
(UTC+00:00)

CZ-2D R/B - Pass Details

Date: 08 August 2020
Orbit: 552 x 639 km, 97.9° (Epoch: 20 September)

Event Time Altitude Azimuth Distance (km) Brightness Sun altitude
Rises 01:53:15 0° 19° (NNE) 2,813 8.4 -12.0°
Reaches altitude 10° 01:55:32 10° 26° (NNE) 1,895 7.4 -11.8°
Maximum altitude 01:59:26 42° 98° (E) 813 4.5 -11.4°
Drops below altitude 10° 02:03:14 10° 171° (S) 1,844 5.6 -11.0°
Enters shadow 02:04:13 - 175° (S) 2,231 6.0 -10.9°
